Simultaneous Nadir Overpasses (SNOs) Predictions

Prediction of SNOs between LANDSAT-8 and METOP-A Satellite Orbit:

Table of predicted SNOs for the next 14.0 days since TLE Epoch: 1/26/2017
Index Date (LANDSAT-8) Time (LANDSAT-8) Lat,Lon (LANDSAT-8) SZA (LANDSAT-8 ) Date (METOP-A) Time (METOP-A) Lat,Lon (METOP-A) SZA (METOP-A ) Distance(km) Time Diff (sec)
1 01/28/2017 06:17:19 -81.15, -54.27 79.07 01/28/2017 06:17:04 -81.15, -54.12 79.06 2.54 15
2 01/28/2017 07:06:45 81.15, 113.42 100.93 01/28/2017 07:07:44 81.16, 113.53 100.97 1.90 59
3 01/31/2017 01:51:33 -81.14, 12.12 79.85 01/31/2017 01:51:26 -81.14, 12.23 79.84 1.81 7
4 01/31/2017 02:40:58 81.17,-179.84 100.20 01/31/2017 02:42:05 81.17,-179.75 100.23 1.59 67
5 02/02/2017 20:36:20 81.11, -89.54 99.29 02/02/2017 20:35:08 81.12, -89.43 99.27 1.92 72
6
